CW5066 Weather Reports


Display with metric or nautical units.
time (UTC)temp
F
wind
direction
speed
MPH
gust
MPH
rain 1hr
in
rain 24hr
in
rain mn
in
humidity
%
barometer
mb
20260508204515 53 203 2.0 10.0 0.00 0.01 0.00 57 1021.4
20260508203515 54 203 4.0 10.0 0.00 0.01 0.00 52 1022.1
20260508202515 53 203 2.0 8.0 0.00 0.02 0.00 54 1021.8
20260508201517 54 0 5.0 14.0 0.00 0.03 0.00 43 1021.9
20260508200517 54 0 5.0 14.0 0.00 0.04 0.00 32 1022.1
20260508195517 54 0 4.0 12.0 0.00 0.06 0.00 36 1022.1
20260508194517 54 0 4.0 11.0 0.00 0.08 0.00 37 1022.1
20260508193517 54 68 8.0 15.0 0.00 0.11 0.00 32 1021.6
20260508192517 53 0 6.0 13.0 0.00 0.14 0.00 36 1021.6
20260508191517 51 0 8.0 16.0 0.00 0.16 0.00 34 1021.0
20260508190517 51 0 13.0 21.0 0.00 0.19 0.00 33 1021.1
20260508185517 52 0 4.0 11.0 0.00 0.23 0.00 35 1021.2
20260508184517 51 68 7.0 16.0 0.00 0.25 0.00 35 1020.4
20260508183517 50 0 8.0 17.0 0.00 0.27 0.00 34 1021.3
20260508182517 50 68 6.0 15.0 0.00 0.30 0.00 34 1021.3
20260508181517 49 0 7.0 16.0 0.00 0.33 0.00 35 1020.8
20260508180517 50 0 7.0 16.0 0.00 0.35 0.00 34 1022.1
20260508175517 50 45 4.0 12.0 0.00 0.35 0.00 38 1022.4
20260508174517 49 68 7.0 16.0 0.00 0.35 0.00 37 1021.7
20260508173517 49 23 3.0 12.0 0.00 0.36 0.00 40 1021.8
20260508172517 49 68 7.0 16.0 0.00 0.36 0.00 40 1021.9
20260508171517 48 0 9.0 18.0 0.00 0.36 0.00 39 1021.9
20260508170557 49 0 6.0 21.0 0.00 0.36 0.00 43 1022.1
20260508165517 48 90 11.0 23.0 0.00 0.36 0.00 42 1022.1
20260508164516 47 0 5.0 13.0 0.00 0.36 0.00 44 1021.7
20260508163517 47 0 9.0 18.0 0.00 0.36 0.00 44 1021.0
20260508162517 47 0 7.0 17.0 0.00 0.36 0.00 44 1021.0
20260508161516 46 0 11.0 25.0 0.00 0.36 0.00 44 1020.4
20260508160517 46 45 7.0 19.0 0.00 0.36 0.00 46 1020.6
20260508155517 46 0 8.0 17.0 0.00 0.36 0.00 47 1020.4
20260508154517 45 0 9.0 19.0 0.00 0.36 0.00 47 1020.3
20260508153537 45 0 6.0 16.0 0.00 0.36 0.00 49 1019.7
20260508152537 44 0 6.0 14.0 0.00 0.36 0.00 49 1019.2
20260508151517 43 0 11.0 23.0 0.00 0.36 0.00 48 1019.3
20260508150536 44 0 7.0 17.0 0.00 0.36 0.00 47 1019.3
20260508145536 43 0 8.0 17.0 0.00 0.36 0.00 47 1019.2
20260508144516 43 0 7.0 15.0 0.00 0.36 0.00 49 1019.2
20260508143516 42 0 10.0 17.0 0.00 0.36 0.00 49 1018.6
20260508142536 42 0 7.0 13.0 0.00 0.36 0.00 52 1018.7
20260508141516 41 0 4.0 10.0 0.00 0.36 0.00 55 1018.7
20260508140516 40 0 6.0 14.0 0.00 0.36 0.00 56 1019.3
20260508135518 39 0 2.0 5.0 0.00 0.36 0.00 61 1018.8
20260508134516 40 45 2.0 7.0 0.00 0.36 0.00 61 1018.9
20260508133516 40 45 6.0 13.0 0.00 0.36 0.00 55 1019.4
20260508132536 40 68 5.0 13.0 0.00 0.36 0.00 55 1019.4
20260508131516 40 90 7.0 15.0 0.00 0.36 0.00 55 1019.3
20260508130536 40 45 4.0 9.0 0.00 0.36 0.00 54 1020.5
20260508125516 40 90 5.0 11.0 0.00 0.36 0.00 54 1020.5
20260508124516 40 90 2.0 8.0 0.00 0.36 0.00 54 1020.4
20260508123536 39 113 3.0 9.0 0.00 0.36 0.00 55 1020.5
20260508122536 39 90 5.0 12.0 0.00 0.36 0.00 55 1020.3
20260508121516 39 68 3.0 7.0 0.00 0.36 0.00 54 1020.2
20260508120516 40 68 6.0 15.0 0.00 0.36 0.00 54 1020.6
20260508115516 40 0 7.0 11.0 0.00 0.36 0.00 54 1020.5
20260508114516 39 45 3.0 9.0 0.00 0.36 0.00 55 1020.5
20260508113516 40 45 4.0 9.0 0.00 0.36 0.00 55 1021.1
20260508112516 40 0 5.0 12.0 0.00 0.36 0.00 54 1021.0
20260508111515 40 0 5.0 11.0 0.00 0.36 0.00 54 1021.0
20260508110556 40 45 6.0 12.0 0.00 0.36 0.00 55 1021.1
20260508105515 40 68 7.0 13.0 0.00 0.36 0.00 54 1021.0
20260508104516 40 0 7.0 13.0 0.00 0.36 0.00 55 1021.1
20260508103555 40 0 4.0 13.0 0.00 0.36 0.00 56 1021.0
20260508102516 40 0 7.0 17.0 0.00 0.36 0.00 55 1021.1
20260508101515 40 0 7.0 17.0 0.00 0.36 0.00 57 1021.0
20260508100515 40 0 5.0 12.0 0.00 0.36 0.00 58 1020.0
20260508095515 39 0 5.0 13.0 0.00 0.36 0.00 58 1020.0
20260508094516 38 0 3.0 9.0 0.00 0.36 0.00 59 1020.0
20260508093515 38 315 3.0 8.0 0.00 0.36 0.00 61 1019.6
20260508092536 40 45 1.0 4.0 0.00 0.36 0.00 55 1020.3
20260508091515 40 338 2.0 7.0 0.00 0.36 0.00 55 1020.4
20260508090516 40 0 3.0 9.0 0.00 0.36 0.00 55 1020.5
20260508085516 40 45 3.0 6.0 0.00 0.36 0.00 55 1020.7
20260508084535 40 68 2.0 5.0 0.00 0.36 0.00 55 1020.7
20260508083515 40 68 4.0 8.0 0.00 0.36 0.00 57 1020.3
20260508082515 40 68 4.0 7.0 0.00 0.36 0.00 58 1020.5
20260508081535 40 68 4.0 9.0 0.00 0.36 0.00 58 1020.7
20260508080517 40 45 4.0 9.0 0.00 0.36 0.00 57 1020.9
20260508075517 40 68 5.0 11.0 0.00 0.36 0.00 57 1020.8
20260508074537 40 0 3.0 8.0 0.00 0.36 0.00 58 1020.9
20260508073517 41 68 4.0 10.0 0.00 0.36 0.00 58 1021.3
20260508072517 41 68 5.0 11.0 0.00 0.36 0.00 56 1021.4
20260508071517 40 0 2.0 7.0 0.00 0.36 0.00 59 1021.4
20260508070517 40 0 4.0 9.0 0.00 0.36 0.00 59 1020.7
20260508065517 38 0 3.0 9.0 0.00 0.36 0.00 66 1020.3
20260508064517 39 0 5.0 11.0 0.00 0.36 0.00 62 1020.8
20260508063537 38 0 4.0 11.0 0.00 0.36 0.00 66 1021.1
20260508062517 41 0 4.0 11.0 0.00 0.36 0.00 57 1021.8
20260508061517 40 0 3.0 11.0 0.00 0.36 0.00 59 1022.1
20260508060517 39 180 1.0 4.0 0.00 0.36 0.00 65 1020.8
20260508055516 40 135 1.0 3.0 0.00 0.36 0.36 62 1021.6
20260508054515 42 135 4.0 11.0 0.00 0.36 0.36 57 1022.5
20260508053515 42 0 5.0 12.0 0.00 0.36 0.36 53 1021.6
20260508052515 42 68 3.0 7.0 0.00 0.36 0.36 55 1021.6
20260508051536 42 45 3.0 10.0 0.00 0.36 0.36 55 1021.5
20260508050515 42 0 8.0 17.0 0.00 0.36 0.36 55 1020.9
20260508045535 42 23 2.0 4.0 0.00 0.36 0.36 55 1021.0
20260508044535 42 0 4.0 8.0 0.00 0.36 0.36 55 1020.8
20260508043515 41 0 2.0 8.0 0.00 0.36 0.36 57 1020.3
20260508042515 40 315 1.0 3.0 0.00 0.36 0.36 62 1019.9
20260508041515 39 315 1.0 4.0 0.00 0.36 0.36 64 1019.8
20260508040515 39 315 1.0 2.0 0.00 0.36 0.36 67 1019.2
20260508035517 40 248 1.0 5.0 0.00 0.36 0.36 67 1019.1
20260508034515 39 315 3.0 9.0 0.00 0.36 0.36 67 1019.3
20260508033517 38 180 5.0 10.0 0.00 0.36 0.36 72 1019.1
20260508032517 37 180 1.0 4.0 0.00 0.36 0.36 77 1019.0
20260508031517 37 180 2.0 5.0 0.00 0.36 0.36 79 1018.8
20260508030557 37 0.0 2.0 0.00 0.36 0.36 78 1019.5
20260508025537 37 315 2.0 7.0 0.00 0.36 0.36 81 1019.7
20260508024517 37 0 3.0 5.0 0.00 0.36 0.36 80 1019.6
20260508023517 37 270 4.0 8.0 0.00 0.36 0.36 81 1019.6
20260508022517 37 293 1.0 3.0 0.00 0.36 0.36 81 1019.7
20260508021517 37 315 3.0 7.0 0.00 0.36 0.36 81 1019.8
20260508020517 38 0 2.0 8.0 0.00 0.36 0.36 79 1019.3
20260508015537 39 68 4.0 9.0 0.00 0.36 0.36 76 1019.7
20260508014517 40 0 4.0 10.0 0.00 0.36 0.36 71 1020.4
20260508013517 40 0 4.0 12.0 0.00 0.36 0.36 67 1019.2
20260508012517 41 0 2.0 10.0 0.00 0.36 0.36 65 1019.5
20260508011517 41 0 6.0 13.0 0.00 0.36 0.36 63 1019.4
20260508010517 42 0 5.0 12.0 0.00 0.36 0.36 60 1018.8
20260508005516 43 0 6.0 15.0 0.00 0.36 0.36 58 1019.8
20260508004537 45 0 6.0 15.0 0.00 0.36 0.36 50 1020.3
20260508003516 45 0 6.0 13.0 0.00 0.37 0.36 48 1019.9
20260508002516 45 0 3.0 10.0 0.00 0.37 0.36 47 1019.6
20260508001517 46 0 5.0 14.0 0.00 0.37 0.36 45 1020.3
20260508000517 48 0 6.0 14.0 0.00 0.37 0.36 45 1020.7
20260507235517 48 0 7.0 14.0 0.00 0.37 0.36 44 1020.8
20260507234517 48 0 10.0 21.0 0.00 0.38 0.36 42 1020.7
20260507233517 48 0 7.0 15.0 0.00 0.38 0.36 41 1021.2
20260507232516 48 0 4.0 10.0 0.00 0.39 0.36 41 1021.2
20260507231516 49 0 6.0 17.0 0.00 0.39 0.36 41 1021.3
20260507230516 49 0 7.0 16.0 0.00 0.39 0.36 41 1021.4
20260507225517 49 0 9.0 19.0 0.00 0.39 0.36 41 1021.2
20260507224516 49 0 5.0 13.0 0.00 0.40 0.36 39 1021.4
20260507223516 49 0 5.0 11.0 0.00 0.40 0.36 41 1020.8
20260507222536 49 0 4.0 10.0 0.00 0.40 0.36 41 1021.0
20260507221516 48 0 6.0 16.0 0.00 0.41 0.36 41 1021.1
20260507220516 48 0 8.0 18.0 0.00 0.42 0.36 43 1021.1
20260507215516 48 0 10.0 23.0 0.01 0.42 0.36 43 1021.6
20260507214517 48 0 7.0 18.0 0.01 0.42 0.36 42 1021.9
20260507213516 47 0 7.0 16.0 0.01 0.42 0.36 41 1022.0
20260507212516 47 0 7.0 12.0 0.02 0.42 0.36 41 1022.0
20260507211516 48 68 7.0 14.0 0.03 0.42 0.36 42 1022.4
20260507210516 48 0 5.0 15.0 0.04 0.42 0.36 41 1022.5
20260507205516 47 0 8.0 17.0 0.05 0.41 0.35 43 1023.0